Location: Lone Wolf Observatory
(41.0360°N, 89.2260°W)
Time: 08:28:56
(UTC-05:00)

Amateur Radio Satellites - All Passes

Search period start: 06 May 2015 07:58
Search period end: 07 May 2015 07:58
Location: Lone Wolf Observatory, 41.0360°N, 89.2260°W

Satellite Date Start Highest point End Downlink Frequencies (MHz)
Time Altitude Azimuth
HO-68 06 May 08:03:47 08:05:52 12° 84° (E) 08:08:31 435.675
CUTE-I 06 May 08:05:03 08:10:05 43° 290° (WNW) 08:15:05 437.470
YUBILEINY 06 May 08:13:31 08:17:08 14° 77° (ENE) 08:21:24 435.215
PRISM 06 May 08:14:39 08:16:23 12° 270° (W) 08:17:54 437.425
Cubesat XI-IV 06 May 08:18:34 08:23:19 33° 292° (WNW) 08:28:00 437.490
PCSat 06 May 08:19:47 08:22:37 14° 322° (NW) 08:25:15 145.827
BEESAT 3 06 May 08:34:51 08:38:49 46° 53° (NE) 08:42:43 437.485
BRITE-PL 06 May 08:47:23 08:52:43 50° 98° (E) 08:58:15 437.365/2234.400
SEEDS 06 May 08:51:01 08:53:30 16° 90° (E) 08:56:08 437.485
ISS 06 May 08:51:39 08:54:46 44° 330° (NNW) 08:57:54 145.825
BEESAT 2 06 May 08:51:47 08:55:52 57° 54° (NE) 08:59:52 435.950
DOVE 4 06 May 08:52:05 08:56:21 25° 92° (E) 09:00:42 437.250
Cosmos 2491 06 May 09:03:52 09:12:45 74° 80° (E) 09:21:35 435.465 / 435.565
GOMX 1 06 May 09:12:14 09:17:34 56° 99° (E) 09:22:59 467.674
CANX-2 06 May 09:18:36 09:22:40 43° 98° (E) 09:26:43 2200.000
CUTE 1.7 + AOD 2 06 May 09:25:50 09:29:58 47° 99° (E) 09:34:03 437.475
ANTELSAT 06 May 09:27:44 09:30:14 15° 64° (ENE) 09:32:57 437.575/2403.000
AIST 2 06 May 09:28:22 09:32:25 43° 52° (NE) 09:36:25 435.215
SO-50 06 May 09:37:04 09:41:40 59° 306° (NW) 09:46:28 436.795
COMPASS 1 06 May 09:40:58 09:45:01 46° 99° (E) 09:49:01 437.405
AIST 1 06 May 09:41:55 09:44:28 16° 69° (ENE) 09:47:11
Oscar 11 06 May 09:42:22 09:45:26 19° 92° (E) 09:48:37 145.826/435.025
FUNcube-1 06 May 09:42:36 09:43:29 11° 86° (E) 09:44:40 145.935
CINEMA 3 06 May 09:45:38 09:50:22 40° 97° (E) 09:55:02 145.822/145.860
HO-68 06 May 09:47:46 09:54:58 75° 104° (ESE) 10:02:07 435.675
DUCHIFAT 1 06 May 09:56:38 09:58:06 12° 64° (ENE) 09:59:47 145.980
CUBEBUG 2 06 May 10:01:49 10:05:58 30° 94° (E) 10:10:05 437.445
UWE-3 06 May 10:02:52 10:06:38 24° 93° (E) 10:10:25 435.000/436.395/437.385
YUBILEINY 06 May 10:03:52 10:12:39 76° 95° (E) 10:21:28 435.215
DELFI C3 06 May 10:06:32 10:09:51 25° 94° (E) 10:13:13 145.870
POLYITAN 1 06 May 10:09:19 10:12:03 17° 66° (ENE) 10:14:56 437.675
TIGRISAT 06 May 10:09:59 10:14:13 37° 70° (ENE) 10:18:34 435.000
ZACube-1 06 May 10:10:47 10:14:24 23° 93° (E) 10:18:01 437.345
AAUSAT CUBESAT 2 06 May 10:13:19 10:17:30 85° 283° (WNW) 10:21:38 437.432
BEESAT 3 06 May 10:13:53 10:16:29 16° 249° (WSW) 10:18:55 437.485
UNISAT 6 06 May 10:19:34 10:24:01 48° 72° (ENE) 10:28:33 437.425
QB50P1 06 May 10:20:15 10:23:27 22° 68° (ENE) 10:26:47 145.935-145.965
SEEDS 06 May 10:25:34 10:29:34 42° 287° (WNW) 10:33:31 437.485
BRITE-PL 06 May 10:26:36 10:30:57 24° 293° (WNW) 10:35:17 437.365/2234.400
DOVE 4 06 May 10:29:14 10:34:14 43° 289° (WNW) 10:39:13 437.250
ISS 06 May 10:29:45 10:31:45 15° 349° (N) 10:33:42 145.825
BUGSAT 1 06 May 10:29:48 10:32:32 18° 67° (ENE) 10:35:23 437.445
BEESAT 2 06 May 10:31:32 10:33:32 13° 250° (WSW) 10:35:21 435.950
DX 1 06 May 10:36:09 10:39:35 23° 94° (E) 10:43:05 434.975-435.025
QB50P2 06 May 10:49:50 10:53:53 46° 73° (ENE) 10:58:00 145.880/145.840
GOMX 1 06 May 10:51:17 10:55:18 21° 294° (WNW) 10:59:13 467.674
Cosmos 2504 06 May 10:54:37 10:58:53 15° 79° (E) 11:03:39 435.465 / 435.565
VELOX 1 06 May 10:54:59 10:57:54 17° 91° (E) 11:00:58 145.980
CANX-2 06 May 10:55:32 10:58:18 17° 294° (WNW) 11:00:54 2200.000
NANOSAT C BR1 06 May 10:59:12 11:03:20 58° 74° (ENE) 11:07:32 145.865
UKube-1 06 May 11:01:31 11:05:36 39° 98° (E) 11:09:41 .
ANTELSAT 06 May 11:01:56 11:06:32 62° 260° (W) 11:11:14 437.575/2403.000
Cosmos 2491 06 May 11:02:12 11:08:50 23° 278° (W) 11:15:05 435.465 / 435.565
CUTE 1.7 + AOD 2 06 May 11:02:57 11:05:32 15° 294° (WNW) 11:07:57 437.475
ESTCUBE 1 06 May 11:03:18 11:04:50 12° 88° (E) 11:06:39 437.505/2401.250
AIST 2 06 May 11:07:45 11:10:42 18° 249° (WSW) 11:13:31 435.215
POPSAT HIP 1 06 May 11:07:59 11:12:12 74° 75° (ENE) 11:16:28 437.405
FUNcube-1 06 May 11:15:52 11:20:27 72° 285° (WNW) 11:24:54 145.935
AISAT 06 May 11:16:54 11:20:52 31° 96° (E) 11:24:53 437.250
Oscar 11 06 May 11:17:47 11:21:47 36° 289° (WNW) 11:25:43 145.826/435.025
COMPASS 1 06 May 11:17:50 11:20:21 15° 294° (WNW) 11:22:42 437.405
AIST 1 06 May 11:18:20 11:22:25 42° 267° (W) 11:26:29
SO-50 06 May 11:21:35 11:23:20 12° 328° (NNW) 11:24:57 436.795
RS-15 06 May 11:21:36 11:29:29 25° 104° (ESE) 11:37:57 29.354- 29.394
CINEMA 3 06 May 11:23:15 11:27:20 24° 293° (WNW) 11:31:15 145.822/145.860
DUCHIFAT 1 06 May 11:29:15 11:33:26 65° 259° (W) 11:37:40 145.980
50 SAT 06 May 11:33:44 11:37:38 50° 99° (E) 11:41:29 437.505
HO-68 06 May 11:36:42 11:42:04 23° 302° (WNW) 11:47:11 435.675
CUBEBUG 2 06 May 11:38:29 11:42:36 29° 291° (WNW) 11:46:34 437.445
UWE-3 06 May 11:39:02 11:43:14 33° 290° (WNW) 11:47:18 435.000/436.395/437.385
HUMSAT D 06 May 11:39:50 11:44:10 79° 284° (WNW) 11:48:24 437.325/437.525
DELFI C3 06 May 11:41:37 11:44:56 24° 290° (WNW) 11:48:10 145.870
POLYITAN 1 06 May 11:43:37 11:47:40 42° 262° (W) 11:51:45 437.675
ZACube-1 06 May 11:46:41 11:50:50 33° 289° (WNW) 11:54:51 437.345
TIGRISAT 06 May 11:47:24 11:51:06 22° 268° (W) 11:54:44 435.000
QB50P1 06 May 11:55:22 11:59:11 32° 264° (W) 12:02:59 145.935-145.965
UNISAT 6 06 May 11:57:56 12:01:07 17° 270° (W) 12:04:08 437.425
CUBEBUG 1 06 May 12:00:24 12:04:37 44° 98° (E) 12:08:50 437.445
YUBILEINY 06 May 12:03:40 12:10:35 24° 297° (WNW) 12:17:08 435.215
BUGSAT 1 06 May 12:04:04 12:07:47 35° 263° (W) 12:11:32 437.445
VERMONT LUNAR 06 May 12:04:28 12:07:29 34° 158° (SSE) 12:10:33 437.305
ISS 06 May 12:07:14 12:09:05 14° 9° (N) 12:10:58 145.825
DX 1 06 May 12:11:58 12:15:54 32° 290° (WNW) 12:19:46 434.975-435.025
Oscar 19 06 May 12:26:49 12:30:30 21° 65° (ENE) 12:34:21 437.125/150
QB50P2 06 May 12:27:37 12:30:06 15° 270° (W) 12:32:26 145.880/145.840
VELOX 1 06 May 12:30:28 12:34:43 43° 288° (WNW) 12:38:56 145.980
SPROUT 06 May 12:34:19 12:38:02 28° 95° (E) 12:41:48 437.525
ESTCUBE 1 06 May 12:37:46 12:42:14 64° 285° (WNW) 12:46:40 437.505/2401.250
NANOSAT C BR1 06 May 12:37:59 12:39:39 12° 272° (W) 12:41:04 145.865
UKube-1 06 May 12:38:22 12:41:30 19° 294° (WNW) 12:44:30 .
Cosmos 2504 06 May 12:42:24 12:51:15 80° 96° (E) 12:59:47 435.465 / 435.565
TISAT 1 06 May 12:52:55 12:56:47 33° 97° (E) 13:00:42 437.305
AISAT 06 May 12:53:39 12:57:21 25° 292° (WNW) 13:00:58 437.250
PHONESAT 2.4 06 May 12:59:37 13:02:46 32° 157° (SSE) 13:05:59 2401.200-2431.200
50 SAT 06 May 13:10:04 13:12:01 13° 295° (WNW) 13:13:48 437.505
ITAMSAT 1 06 May 13:28:01 13:31:59 24° 65° (ENE) 13:36:05 435.822/435.867
Gurwin Techsat 1B 06 May 13:29:13 13:33:07 22° 65° (ENE) 13:37:11 435.225
RS-15 06 May 13:29:47 13:40:42 83° 304° (NW) 13:51:55 29.354- 29.394
CUBEBUG 1 06 May 13:37:40 13:40:41 18° 294° (WNW) 13:43:34 437.445
PCSat 06 May 13:38:42 13:41:55 16° 40° (NE) 13:45:17 145.827
VERMONT LUNAR 06 May 13:41:23 13:44:42 79° 175° (S) 13:48:03 437.305
ISS 06 May 13:43:03 13:46:07 37° 28° (NNE) 13:49:12 145.825
ITUPSAT 1 06 May 13:53:57 13:57:45 24° 94° (E) 14:01:40 437.325
Oscar 19 06 May 14:04:29 14:09:31 51° 260° (W) 14:14:35 437.125/150
SPROUT 06 May 14:10:25 14:14:04 26° 291° (WNW) 14:17:37 437.525
BEESAT 06 May 14:16:23 14:20:53 41° 98° (E) 14:25:24 436.000
SWISSCUBE 06 May 14:20:54 14:25:32 51° 100° (E) 14:30:10 437.505
JAS-2 06 May 14:26:30 14:31:23 20° 61° (ENE) 14:36:17 435.910
TISAT 1 06 May 14:29:07 14:32:25 21° 292° (WNW) 14:35:36 437.305
GONETS M04 06 May 14:30:53 14:37:35 26° 83° (E) 14:44:39
AO-7 06 May 14:32:07 14:38:34 27° 56° (ENE) 14:45:15 29.400- 29.500
PHONESAT 2.4 06 May 14:37:13 14:40:46 77° 173° (S) 14:44:20 2401.200-2431.200
Cosmos 2504 06 May 14:38:58 14:45:43 23° 296° (WNW) 14:51:55 435.465 / 435.565
ITAMSAT 1 06 May 15:06:20 15:11:16 43° 262° (W) 15:16:11 435.822/435.867
Gurwin Techsat 1B 06 May 15:07:39 15:12:48 49° 261° (W) 15:17:57 435.225
VERMONT LUNAR 06 May 15:18:45 15:22:04 66° 191° (SSW) 15:25:24 437.305
ISS 06 May 15:19:35 15:22:22 25° 225° (SW) 15:25:06 145.825
PCSat 06 May 15:20:45 15:26:12 87° 57° (ENE) 15:31:38 145.827
CUSAT 1 06 May 15:21:30 15:25:38 29° 86° (E) 15:30:57 437.405
HORYU 2 06 May 15:30:41 15:35:05 58° 73° (ENE) 15:39:33 437.375
ITUPSAT 1 06 May 15:31:24 15:35:45 35° 290° (WNW) 15:40:02 437.325
DANDE 06 May 15:39:20 15:43:12 30° 86° (E) 15:48:17 436.750
KKS-1 06 May 15:45:02 15:49:31 66° 101° (ESE) 15:54:00 437.445
RS-15 06 May 15:45:46 15:55:08 30° 332° (NNW) 16:04:35 29.354- 29.394
BEESAT 06 May 15:54:52 15:58:30 21° 294° (WNW) 16:01:59 436.000
SWISSCUBE 06 May 15:59:47 16:03:03 18° 295° (WNW) 16:06:09 437.505
JAS-2 06 May 16:08:00 16:15:47 89° 255° (WSW) 16:22:58 435.910
STARS 06 May 16:09:52 16:14:21 77° 102° (ESE) 16:18:48 437.465
PHONESAT 2.4 06 May 16:15:24 16:18:56 71° 191° (S) 16:22:31 2401.200-2431.200
AO-7 06 May 16:22:28 16:30:44 73° 255° (WSW) 16:39:03 29.400- 29.500
GONETS M04 06 May 16:25:04 16:33:49 66° 282° (WNW) 16:42:38
Cosmos 2499 06 May 16:27:46 16:34:28 27° 85° (E) 16:41:12 435.465 / 435.565
SO-50 06 May 16:28:56 16:32:30 20° 40° (NE) 16:36:09 436.795
VERMONT LUNAR 06 May 16:56:28 16:59:10 22° 207° (SSW) 17:01:51 437.305
CUSAT 1 06 May 17:03:38 17:08:11 34° 293° (WNW) 17:13:59 437.405
PCSat 06 May 17:06:49 17:08:58 12° 256° (WSW) 17:10:46 145.827
HORYU 2 06 May 17:09:52 17:12:11 13° 271° (W) 17:14:16 437.375
DANDE 06 May 17:22:17 17:26:26 30° 294° (WNW) 17:31:41 436.750
KKS-1 06 May 17:23:30 17:25:40 13° 297° (WNW) 17:27:38 437.445
MOZHAYETS 4 06 May 17:40:17 17:44:52 82° 102° (ESE) 17:49:25
CUTE-I 06 May 17:47:13 17:52:05 39° 69° (ENE) 17:57:01 437.470
STARS 06 May 17:48:49 17:50:15 11° 298° (WNW) 17:51:27 437.465
PHONESAT 2.4 06 May 17:53:50 17:56:54 27° 205° (SSW) 17:59:57 2401.200-2431.200
JAS-2 06 May 17:56:53 18:01:41 17° 273° (W) 18:05:51 435.910
Cubesat XI-IV 06 May 18:00:21 18:05:28 52° 72° (ENE) 18:10:39 437.490
RS-15 06 May 18:04:39 18:12:34 21° 6° (N) 18:20:49 29.354- 29.394
SO-50 06 May 18:08:38 18:13:35 70° 241° (WSW) 18:18:27 436.795
CUBESAT XI-V 06 May 18:15:39 18:18:14 15° 89° (E) 18:21:02 437.345
Cosmos 2499 06 May 18:18:24 18:27:09 66° 281° (WNW) 18:35:24 435.465 / 435.565
AO-7 06 May 18:21:36 18:25:12 13° 275° (W) 18:28:07 29.400- 29.500
GONETS M04 06 May 18:28:50 18:32:54 13° 306° (NW) 18:36:21
HO-68 06 May 18:34:56 18:36:22 11° 50° (NE) 18:38:15 435.675
O/OREOS (USA 219) 06 May 19:03:58 19:05:41 12° 100° (E) 19:07:40 437.305
MOZHAYETS 4 06 May 19:20:15 19:21:31 11° 298° (WNW) 19:22:30
CUTE-I 06 May 19:27:51 19:32:18 26° 266° (W) 19:36:40 437.470
Cubesat XI-IV 06 May 19:42:05 19:45:57 20° 269° (W) 19:49:40 437.490
SEEDS 06 May 19:44:15 19:45:53 12° 65° (ENE) 19:47:44 437.485
M-CUBED/EXP-1 PRIME 06 May 19:48:58 19:52:46 74° 107° (ESE) 19:56:15 437.505
CUBESAT XI-V 06 May 19:51:33 19:56:04 53° 286° (WNW) 20:00:35 437.345
PRISM 06 May 19:54:11 19:58:18 88° 285° (WNW) 20:02:25 437.425
DOVE 4 06 May 19:58:13 20:01:38 22° 66° (ENE) 20:05:19 437.250
BRITE-PL 06 May 19:58:49 20:02:58 48° 72° (ENE) 20:07:29 437.365/2234.400
STRAND 1 06 May 20:03:28 20:08:37 82° 102° (ESE) 20:13:45 437.568
CANX-2 06 May 20:11:31 20:15:18 31° 71° (ENE) 20:19:09 2200.000
Cosmos 2491 06 May 20:12:53 20:17:22 16° 78° (ENE) 20:22:26 435.465 / 435.565
YUBILEINY 06 May 20:14:39 20:22:31 37° 70° (ENE) 20:30:28 435.215
HO-68 06 May 20:15:47 20:22:44 56° 68° (ENE) 20:29:45 435.675
Cosmos 2499 06 May 20:18:19 20:22:10 13° 303° (WNW) 20:25:19 435.465 / 435.565
CUTE 1.7 + AOD 2 06 May 20:18:37 20:22:29 34° 71° (ENE) 20:26:24 437.475
RS-15 06 May 20:18:49 20:29:21 41° 39° (NE) 20:40:29 29.354- 29.394
AUBIESAT-1 06 May 20:19:33 20:23:13 51° 292° (WNW) 20:26:35 437.475
GOMX 1 06 May 20:20:37 20:24:55 53° 73° (ENE) 20:29:35 467.674
COMPASS 1 06 May 20:32:11 20:35:57 32° 71° (ENE) 20:39:44 437.405
Oscar 11 06 May 20:37:45 20:40:22 16° 66° (ENE) 20:43:09 145.826/435.025
O/OREOS (USA 219) 06 May 20:40:07 20:44:38 63° 294° (WNW) 20:49:10 437.305
CINEMA 3 06 May 20:47:17 20:51:25 34° 70° (ENE) 20:55:47 145.822/145.860
DELFI C3 06 May 20:54:46 20:57:18 17° 67° (ENE) 20:59:59 145.870
CUBEBUG 2 06 May 21:00:07 21:03:48 25° 68° (ENE) 21:07:40 437.445
UWE-3 06 May 21:00:15 21:03:34 21° 67° (ENE) 21:07:03 435.000/436.395/437.385
AAUSAT CUBESAT 2 06 May 21:03:41 21:07:51 63° 75° (ENE) 21:12:02 437.432
ZACube-1 06 May 21:07:04 21:10:12 19° 66° (ENE) 21:13:31 437.345
SEEDS 06 May 21:16:59 21:21:14 63° 259° (W) 21:25:29 437.485
DX 1 06 May 21:32:08 21:35:15 20° 67° (ENE) 21:38:31 434.975-435.025
DOVE 4 06 May 21:34:55 21:39:09 38° 264° (W) 21:43:37 437.250
BRITE-PL 06 May 21:39:22 21:42:00 15° 272° (W) 21:44:31 437.365/2234.400
STRAND 1 06 May 21:44:48 21:47:13 13° 299° (WNW) 21:49:23 437.568
CANX-2 06 May 21:47:52 21:51:18 22° 267° (W) 21:54:39 2200.000
VELOX 1 06 May 21:53:11 21:55:50 16° 65° (ENE) 21:58:39 145.980
CUTE 1.7 + AOD 2 06 May 21:55:13 21:58:30 20° 268° (W) 22:01:42 437.475
UKube-1 06 May 21:56:22 22:00:14 33° 70° (ENE) 22:04:09 .
GOMX 1 06 May 22:01:01 22:03:36 14° 273° (W) 22:06:03 467.674
ESTCUBE 1 06 May 22:03:34 22:05:12 12° 63° (ENE) 22:07:03 437.505/2401.250
Cosmos 2491 06 May 22:04:18 22:13:03 85° 97° (E) 22:21:54 435.465 / 435.565
HO-68 06 May 22:04:45 22:10:51 28° 267° (W) 22:16:48 435.675
COMPASS 1 06 May 22:08:24 22:11:42 21° 267° (W) 22:14:54 437.405
FUNcube-1 06 May 22:11:01 22:15:30 87° 77° (ENE) 22:20:05 145.935
YUBILEINY 06 May 22:11:19 22:19:36 48° 271° (W) 22:27:43 435.215
Oscar 11 06 May 22:11:59 22:16:13 48° 261° (W) 22:20:27 145.826/435.025
AISAT 06 May 22:14:53 22:18:35 28° 69° (ENE) 22:22:24 437.250
50 SAT 06 May 22:18:53 22:22:23 29° 70° (ENE) 22:25:56 437.505
CINEMA 3 06 May 22:24:58 22:28:43 24° 268° (W) 22:32:31 145.822/145.860
DELFI C3 06 May 22:28:20 22:32:11 39° 262° (W) 22:36:01 145.870
HUMSAT D 06 May 22:31:06 22:35:23 71° 76° (ENE) 22:39:44 437.325/437.525
RS-15 06 May 22:31:14 22:42:47 71° 243° (WSW) 22:54:45 29.354- 29.394
UWE-3 06 May 22:35:34 22:39:50 40° 263° (W) 22:44:12 435.000/436.395/437.385
CUBEBUG 2 06 May 22:36:14 22:40:22 33° 265° (W) 22:44:34 437.445
Cosmos 2504 06 May 22:36:57 22:43:06 27° 66° (ENE) 22:49:11 435.465 / 435.565
ZACube-1 06 May 22:42:01 22:46:17 42° 263° (W) 22:50:38 437.345
AAUSAT CUBESAT 2 06 May 22:42:50 22:43:58 11° 272° (W) 22:44:51 437.432
BEESAT 2 06 May 22:48:40 22:49:30 11° 109° (ESE) 22:50:35 435.950
ANTELSAT 06 May 22:54:40 22:58:38 28° 94° (E) 23:02:35 437.575/2403.000
POPSAT HIP 1 06 May 22:55:18 22:57:00 12° 89° (E) 22:58:56 437.405
CUBEBUG 1 06 May 22:56:36 23:00:30 36° 71° (ENE) 23:04:30 437.445
DX 1 06 May 23:07:17 23:11:18 36° 262° (W) 23:15:19 434.975-435.025
DUCHIFAT 1 06 May 23:14:53 23:18:03 20° 93° (E) 23:21:18 145.980
VELOX 1 06 May 23:27:48 23:32:03 48° 260° (W) 23:36:21 145.980
SPROUT 06 May 23:28:52 23:32:06 22° 68° (ENE) 23:35:29 437.525
POLYITAN 1 06 May 23:29:15 23:33:05 30° 96° (E) 23:36:56 437.675
UKube-1 06 May 23:33:08 23:36:28 21° 267° (W) 23:39:43 .
ESTCUBE 1 06 May 23:37:04 23:41:33 71° 258° (WSW) 23:46:03 437.505/2401.250
TIGRISAT 06 May 23:38:10 23:42:50 81° 102° (ESE) 23:47:22 435.000
QB50P1 06 May 23:40:12 23:44:15 39° 98° (E) 23:48:19 145.935-145.965
TISAT 1 06 May 23:45:22 23:48:47 25° 69° (ENE) 23:52:17 437.305
BUGSAT 1 06 May 23:46:07 23:49:53 31° 96° (E) 23:53:42 437.445
AIST 1 06 May 23:47:15 23:51:30 73° 278° (W) 23:55:47
UNISAT 6 06 May 23:48:18 23:52:57 77° 284° (WNW) 23:57:28 437.425
AISAT 06 May 23:51:25 23:55:10 26° 265° (W) 23:58:53 437.250
50 SAT 06 May 23:54:04 23:57:13 21° 267° (W) 00:00:16 437.505
Cosmos 2491 07 May 00:04:51 00:11:15 21° 299° (WNW) 00:17:18 435.465 / 435.565
BEESAT 3 07 May 00:05:02 00:09:07 88° 299° (WNW) 00:13:16 437.485
QB50P2 07 May 00:10:49 00:15:09 89° 284° (WNW) 00:19:27 145.880/145.840
NANOSAT C BR1 07 May 00:19:51 00:24:10 73° 285° (WNW) 00:28:26 145.865
BEESAT 2 07 May 00:23:01 00:27:07 70° 304° (NW) 00:31:16 435.950
POPSAT HIP 1 07 May 00:29:04 00:33:19 57° 286° (WNW) 00:37:32 437.405
Cosmos 2504 07 May 00:29:40 00:37:08 57° 268° (W) 00:44:09 435.465 / 435.565
ANTELSAT 07 May 00:31:23 00:35:23 28° 291° (WNW) 00:39:14 437.575/2403.000
CUBEBUG 1 07 May 00:33:49 00:37:02 20° 268° (W) 00:40:08 437.445
GONETS M04 07 May 00:42:04 00:45:03 12° 53° (NE) 00:48:42
RS-15 07 May 00:47:08 00:53:36 15° 260° (W) 00:59:08 29.354- 29.394
DUCHIFAT 1 07 May 00:50:04 00:53:59 34° 289° (WNW) 00:57:51 145.980
ITUPSAT 1 07 May 01:00:45 01:04:47 28° 68° (ENE) 01:08:53 437.325
AIST 2 07 May 01:04:02 01:08:18 85° 302° (WNW) 01:12:37 435.215
SPROUT 07 May 01:04:10 01:08:03 32° 264° (W) 01:11:55 437.525
POLYITAN 1 07 May 01:05:23 01:08:53 24° 292° (WNW) 01:12:16 437.675
QB50P1 07 May 01:16:49 01:19:52 19° 293° (WNW) 01:22:48 145.935-145.965
TIGRISAT 07 May 01:17:25 01:18:57 11° 298° (WNW) 01:20:15 435.000
TISAT 1 07 May 01:20:54 01:24:30 27° 265° (W) 01:28:04 437.305
BUGSAT 1 07 May 01:21:53 01:25:13 22° 292° (WNW) 01:28:29 437.445
BEESAT 07 May 01:22:41 01:27:15 47° 72° (ENE) 01:31:51 436.000
SWISSCUBE 07 May 01:27:16 01:31:56 58° 73° (ENE) 01:36:38 437.505
BEESAT 3 07 May 01:46:03 01:47:48 12° 322° (NW) 01:49:26 437.485
CUSAT 1 07 May 01:57:26 02:04:50 36° 68° (ENE) 02:12:08 437.405
BEESAT 2 07 May 02:05:16 02:06:04 10° 324° (NW) 02:06:42 435.950
Oscar 19 07 May 02:16:00 02:21:08 57° 100° (E) 02:26:14 437.125/150
DANDE 07 May 02:17:53 02:25:37 40° 70° (ENE) 02:33:29 436.750
GONETS M04 07 May 02:35:28 02:44:15 64° 78° (ENE) 02:52:57
ITUPSAT 1 07 May 02:38:23 02:42:37 30° 264° (W) 02:46:48 437.325
KKS-1 07 May 02:42:56 02:47:18 58° 73° (ENE) 02:51:42 437.445
AIST 2 07 May 02:45:38 02:47:36 13° 322° (NW) 02:49:26 435.215
BEESAT 07 May 03:02:05 03:05:24 18° 269° (W) 03:08:33 436.000
STARS 07 May 03:06:28 03:10:51 66° 74° (ENE) 03:15:16 437.465
SWISSCUBE 07 May 03:07:29 03:10:15 15° 270° (W) 03:12:47 437.505
ITAMSAT 1 07 May 03:18:54 03:24:04 67° 101° (ESE) 03:29:15 435.822/435.867
Gurwin Techsat 1B 07 May 03:23:43 03:29:01 67° 101° (E) 03:34:19 435.225
HORYU 2 07 May 03:24:41 03:25:47 11° 88° (E) 03:27:09 437.375
CUSAT 1 07 May 03:39:51 03:47:56 55° 267° (W) 03:55:33 437.405
Oscar 19 07 May 03:56:28 04:00:05 19° 296° (WNW) 04:03:31 437.125/150
DANDE 07 May 04:01:00 04:09:06 51° 268° (W) 04:17:01 436.750
Cosmos 2499 07 May 04:10:43 04:17:43 43° 73° (ENE) 04:24:25 435.465 / 435.565
KKS-1 07 May 04:22:16 04:24:24 13° 271° (W) 04:26:19 437.445
PCSat 07 May 04:24:08 04:24:43 10° 103° (ESE) 04:25:40 145.827
AO-7 07 May 04:24:21 04:32:00 40° 98° (E) 04:39:44 29.400- 29.500
GONETS M04 07 May 04:33:20 04:40:31 28° 277° (W) 04:47:22
MOZHAYETS 4 07 May 04:41:48 04:46:25 75° 76° (ENE) 04:51:04
STARS 07 May 04:46:25 04:47:51 11° 272° (W) 04:49:00 437.465
HORYU 2 07 May 04:58:32 05:03:00 68° 286° (WNW) 05:07:25 437.375
ITAMSAT 1 07 May 04:59:51 05:03:05 16° 298° (WNW) 05:06:08 435.822/435.867
JAS-2 07 May 05:04:02 05:09:48 84° 102° (ESE) 05:15:04 435.910
M-CUBED/EXP-1 PRIME 07 May 05:04:31 05:06:25 13° 58° (ENE) 05:08:30 437.505
Gurwin Techsat 1B 07 May 05:05:08 05:08:31 17° 298° (WNW) 05:11:41 435.225
O/OREOS (USA 219) 07 May 05:11:31 05:15:10 24° 57° (ENE) 05:18:52 437.305
CUBESAT XI-V 07 May 05:19:31 05:22:09 16° 65° (ENE) 05:24:56 437.345
AUBIESAT-1 07 May 05:32:52 05:36:17 21° 62° (ENE) 05:39:43 437.475
STRAND 1 07 May 05:42:58 05:45:41 15° 62° (ENE) 05:48:37 437.568
PCSat 07 May 06:01:59 06:07:24 84° 118° (ESE) 06:12:52 145.827
Cosmos 2499 07 May 06:04:15 06:10:40 32° 273° (W) 06:16:43 435.465 / 435.565
CUTE-I 07 May 06:05:34 06:08:31 15° 89° (E) 06:11:43 437.470
AO-7 07 May 06:17:03 06:24:57 48° 296° (WNW) 06:32:47 29.400- 29.500
Cubesat XI-IV 07 May 06:18:29 06:22:21 21° 92° (E) 06:26:24 437.490
MOZHAYETS 4 07 May 06:23:16 06:24:17 10° 273° (W) 06:24:59
ISS 07 May 06:24:06 06:24:27 10° 130° (SE) 06:24:57 145.825
M-CUBED/EXP-1 PRIME 07 May 06:35:55 06:40:45 84° 252° (WSW) 06:45:25 437.505
PRISM 07 May 06:44:00 06:48:05 66° 75° (ENE) 06:52:11 437.425
O/OREOS (USA 219) 07 May 06:50:39 06:54:40 32° 255° (WSW) 06:58:36 437.305
JAS-2 07 May 06:51:16 06:54:05 14° 303° (WNW) 06:56:33 435.910
CUBESAT XI-V 07 May 06:54:40 06:59:12 55° 261° (W) 07:03:43 437.345
AUBIESAT-1 07 May 07:06:12 07:10:47 46° 256° (WSW) 07:15:13 437.475
STRAND 1 07 May 07:19:18 07:24:22 71° 257° (WSW) 07:29:29 437.568
CUTE-I 07 May 07:43:52 07:49:10 66° 287° (WNW) 07:54:28 437.470
PCSat 07 May 07:47:56 07:51:35 18° 318° (NW) 07:55:06 145.827
